Location: NJAA Observatory
(40.6819°N, 74.8979°W)
Time: 14:15:05
(UTC-04:00)

Landsat 5 - Visible Passes

Search period start: 25 July 2014 00:00
Search period end: 04 August 2014 00:00
Orbit: 534 x 669 km, 98.1° (Epoch: 24 July)

Date Brightness Start Highest point End Pass type
(mag) Time Alt. Az. Time Alt. Az. Time Alt. Az.
25 Jul 5.6 00:12:47 17° WNW 00:12:47 17° WNW 00:14:34 10° NW visible
25 Jul 4.1 22:47:48 37° ENE 22:47:48 37° ENE 22:51:09 10° N visible
26 Jul 6.0 00:24:35 13° WNW 00:24:35 13° WNW 00:25:34 10° WNW visible
26 Jul 3.8 22:59:37 49° NE 22:59:37 49° NE 23:02:55 10° N visible
27 Jul 3.7 23:11:26 57° NNE 23:11:26 57° NNE 23:14:37 10° N visible
28 Jul 4.0 23:23:14 52° NNW 23:23:14 52° NNW 23:26:15 10° NNW visible
29 Jul 5.6 21:58:16 11° ENE 21:58:47 11° ENE 21:59:46 10° NE visible
29 Jul 4.5 23:35:03 40° NW 23:35:03 40° NW 23:37:49 10° NNW visible
30 Jul 5.4 22:10:05 15° ENE 22:10:16 15° ENE 22:12:26 10° NNE visible
30 Jul 4.9 23:46:52 30° WNW 23:46:52 30° WNW 23:49:19 10° NNW visible
31 Jul 5.1 22:21:53 19° ENE 22:21:53 19° ENE 22:24:35 10° NNE visible
31 Jul 5.4 23:58:41 23° WNW 23:58:41 23° WNW 00:00:44 10° NW visible
01 Aug 4.8 22:33:42 25° ENE 22:33:42 25° ENE 22:36:34 10° NNE visible
02 Aug 5.7 00:10:29 17° WNW 00:10:29 17° WNW 00:12:02 10° NW visible
02 Aug 4.5 22:45:31 32° NE 22:45:31 32° NE 22:48:26 10° N visible
03 Aug 6.1 00:22:18 13° WNW 00:22:18 13° WNW 00:23:09 10° NW visible
03 Aug 4.3 22:57:20 39° NNE 22:57:20 39° NNE 23:00:13 10° N visible
